Lid_Strength_Index
14 14 14 15 15 15 15 15 15 15 15 15 15 15 15 16 16 16 16 16 16 16 16 16 15 15 15 15 15 15 15 15 17 16 14 12 14 14 13 14 14 14 14
14 14 14 15 15 15 15 15 15 15 15 15 15 15 15 15 15 16 16 16 16 16 16 16 16 15 16 15 15 15 15 15 16 17 15 14 13 12 13 14 13 14 14
14 14 14 14 15 15 15 15 15 15 15 15 15 16 16 16 16 16 15 15 15 15 15 15 15 15 16 16 16 15 15 14 15 16 16 14 13 13 13 13 13 13 13
14 14 14 14 14 15 15 15 15 15 16 16 16 16 16 16 16 15 15 15 15 15 15 15 15 15 15 16 16 16 15 15 15 15 16 15 15 13 14 14 13 13 13
14 14 14 14 14 15 15 16 16 16 16 16 16 16 16 15 14 14 14 14 14 14 14 14 14 14 13 14 15 16 15 16 16 16 16 16 15 15 15 13 14 13 12
14 14 14 15 15 16 16 16 16 16 16 16 16 16 16 15 12 11 11 13 14 15 15 15 15 15 15 14 13 13 14 16 17 16 16 16 15 14 13 14 13 13 14
15 16 16 16 16 17 16 16 16 16 16 16 16 17 17 17 13 12 12 13 14 15 15 16 16 15 16 16 15 14 14 14 13 15 17 17 16 15 14 14 13 13 13
16 17 17 17 17 17 17 17 17 17 17 18 18 18 17 17 13 13 12 14 15 16 16 16 16 16 16 16 16 16 15 15 14 14 15 16 15 15 15 15 14 13 13
16 16 16 17 18 18 19 19 18 19 19 19 18 19 19 19 15 13 14 15 16 16 16 16 16 16 15 13 14 15 15 14 12 12 12 11 11 11 11 12 14 15 16
15 15 16 17 20 20 19 20 20 21 19 18 19 19 19 20 16 14 13 15 17 16 16 15 13 13 12 12 13 15 16 15 14 15 14 13 12 13 11 13 14 16 15
16 16 17 17 20 20 21 21 22 23 20 22 21 20 21 20 19 14 13 14 15 15 15 15 14 12 11 11 11 13 14 13 13 14 14 14 14 13 13 13 13 13 15
17 18 18 21 20 20 26 25 25 26 25 24 24 22 20 19 16 14 12 11 11 14 14 14 13 11 10 9 10 9 9 10 12 14 15 16 15 15 15 14 13 12 11
20 20 21 21 20 20 24 23 25 27 26 23 22 21 20 18 17 13 11 11 10 12 12 11 10 10 10 11 11 11 12 13 14 15 15 15 15 15 14 15 14 14 14
24 21 20 21 21 21 20 20 25 25 23 22 22 21 20 18 15 14 14 13 11 12 12 12 12 13 13 14 16 15 15 15 15 16 16 15 14 14 15 15 17 17 17
23 20 20 20 21 21 21 21 21 20 20 21 20 18 16 16 15 11 11 12 12 11 13 17 19 20 20 19 19 18 18 17 17 16 16 16 15 16 16 15 16 16 18
21 20 20 20 20 20 21 21 16 13 12 11 10 11 13 12 11 10 10 10 11 13 18 23 23 22 22 21 21 20 19 18 16 16 16 15 16 16 16 16 15 16 17
23 20 20 20 21 22 22 22 23 19 14 13 12 12 12 11 11 11 11 12 15 17 27 25 24 24 23 22 22 21 20 18 16 15 14 14 15 16 16 16 15 15 15
22 20 22 21 22 24 23 23 23 24 24 22 17 15 13 13 12 12 13 17 24 24 31 25 25 24 23 22 21 21 20 19 17 16 14 14 14 15 15 15 14 12 14
22 22 22 23 23 24 23 23 23 23 23 24 22 19 18 16 15 15 16 30 26 25 24 24 23 22 22 21 21 20 19 19 17 16 15 13 13 13 14 13 12 10 10
24 22 22 25 26 26 24 24 24 24 25 25 24 23 22 22 27 28 29 30 28 24 23 23 22 21 21 21 20 20 19 18 17 16 16 14 13 12 11 11 10 10 9
25 26 24 27 28 27 27 26 25 26 25 26 24 22 16 21 26 26 26 27 27 25 23 22 21 21 20 20 20 20 19 18 17 16 16 15 14 14 13 11 10 9 10
27 27 30 29 28 27 27 26 26 26 26 24 23 23 18 25 25 26 26 27 26 25 23 23 22 21 20 20 20 19 19 17 17 16 16 16 15 14 13 13 12 12 13
25 25 25 28 28 28 28 29 28 27 26 24 25 25 27 28 29 28 28 27 26 25 24 24 23 22 21 19 19 19 19 17 15 16 17 17 16 15 14 14 13 13 13
26 25 25 26 29 28 28 28 26 24 24 25 28 29 28 28 31 30 29 28 27 26 25 24 23 23 22 21 20 19 18 16 14 16 16 17 17 16 15 14 14 13 13
32 29 28 28 28 26 26 26 24 24 25 27 28 30 30 30 30 31 30 29 28 27 26 25 24 24 23 23 22 21 19 16 16 16 17 17 17 16 16 15 15 14 14
25 25 24 24 26 26 26 24 23 24 26 27 29 30 31 31 30 30 29 29 28 27 27 26 25 25 25 23 22 19 17 13 13 16 17 17 17 17 16 16 16 16 16